Pagrindinis puslapis
METAR-TAF:

METAR-TAF

Oro uostai :

Coleman, Teksasas, Jungtinės Amerikos Valstijos

platuma: 31-50-28N, ilguma: 099-24-12W, Aukštis: 517 m

Dabartinis oras

Ataskaita buvo paskelbta 33 minutes, ne 02:55 UTC
Vėjas 4 kt iš Rytų
Temperatūra 29°C
Drėgmė 29%
Slėgis 1015 hPa

METAR: KCOM 040255Z AUTO 09004KT 29/09 A2997 RMK AO2 T02860094 PWINO

Laikas: 21:28 (03:28 UTC)


TAF: trūkstamas

Orai ataskaitas ir orų prognozės (METAR, TAF).

turimą stotys yra geltonos ir raudonos taškus žemėlapyje.

Perkelti pele per norėdami pamatyti stoties vardą.

Tada spustelėkite, norėdami matyti oro stebėjimo ir prognozės.

Norėdami pakeisti žemėlapį: spustelėkite ant žalios mygtukų su juodo kryžiaus žemyn,; žalią mygtuką su brūkšneliu, jei norite nutolinti; arba žalių rodyklių gretimoms žemėlapius.


METAR-TAF: